Regional Weather Roundup
Issued by NWS Cleveland, OH

Home | Current Version | Previous Version | Text Only | Print | Product List | Glossary On
Versions: 1 2 3 4 5 6 7 8 9 10 11 12 13 14 15 16 17 18 19 20 21 22 23 24 25 26 27 28 29 30 31 32 33 34 35 36 37 38 39 40 41 42 43 44 45 46 47 48 49 50
000
ASUS41 KCLE 212000
RWRCLE
OHIO REGIONAL WEATHER ROUNDUP
NATIONAL WEATHER SERVICE WILMINGTON, OH
400 PM EDT THU AUG 21 2014

NOTE: "FAIR" INDICATES FEW OR NO CLOUDS BELOW 12,000 FEET WITH NO
SIGNIFICANT WEATHER AND/OR OBSTRUCTIONS TO VISIBILITY.

OHZ001>008-015>018-024>027-034-035-043-044-212100-
   NORTHWEST OHIO

CITY           SKY/WX    TMP DP  RH WIND       PRES   REMARKS
DEFIANCE       CLOUDY    77  69  76 SW8       30.01R
FINDLAY        CLOUDY    77  69  76 SW10      29.99S
TOLEDO EXPRESS PTSUNNY   80  70  71 SW13      29.97S
TOLEDO METCALF CLOUDY    81  69  67 SW15G21   29.98S
LIMA           CLOUDY    74  69  85 SW10      30.01F
$$

OHZ009>014-019>023-028>033-038-089-212100-
   NORTHEAST OHIO

CITY           SKY/WX    TMP DP  RH WIND       PRES   REMARKS
CLE-HOPKINS    PTSUNNY   80  68  66 W9        30.00F
CLE-LAKEFRONT  CLOUDY    76  70  82 W5        29.96F
CUY CO. ARPT   PTSUNNY   79  72  78 W14       29.99F
LORAIN-ELYRIA  CLOUDY    81  69  67 W9        29.99F
ASHTABULA      PTSUNNY   80  69  69 VRB7      29.99F
AKRON-CANTON   CLOUDY    78  65  63 SW12G18   30.01F
WOOSTER        NOT AVBL
MANSFIELD      CLOUDY    74  67  78 W10       30.02S
YOUNGSTOWN     CLOUDY    75  70  84 S5        30.01R
$$

OHZ042-051>053-060>062-070>072-077>081-212100-
  SOUTHWEST OHIO

CITY           SKY/WX    TMP DP  RH WIND       PRES   REMARKS
CINC-COVINGTON CLOUDY    81  72  74 W8        30.05F
CINC-LUNKEN    MOSUNNY   79  73  82 SW3       30.04F
HAMILTON       CLOUDY    80  73  79 VRB6      30.05F
DAYTON         NOT AVBL
WRIGHT-PAT AFB PTSUNNY   72  72 100 S8        30.05F
DAYTON GENERAL CLOUDY    74  70  87 S5        30.06S
WILMINGTON     CLOUDY    76  68  76 CALM      30.07F
$$

OHZ036-037-039>041-045>050-054>059-063>069-073>076-082>088-212100-
  CENTRAL AND SOUTHEAST OHIO

CITY           SKY/WX    TMP DP  RH WIND       PRES   REMARKS
COLUMBUS       LGT RAIN  76  69  79 SW10      30.04R
OSU AIRPORT    LGT RAIN  73  69  87 SW14      30.04R
BOLTON FIELD   RAIN      72  70  94 W5        30.07S
RICKENBACK AFB NOT AVBL
NEWARK         LGT RAIN  74  69  85 SW8       30.02F
MARION         CLOUDY    74  69  85 SW12G22   30.01F
LANCASTER      CLOUDY    75  69  81 SW12      30.05F
ZANESVILLE     CLOUDY    72  68  87 S6        30.04F
NEW PHILLY     CLOUDY    74  69  85 VRB6      30.03F
$$


USA.gov is the U.S. government's official web portal to all federal, state and local government web resources and services.